Weather Roundup
Issued by NWS Chicago, IL

Home | Current Version | Previous Version | Text Only | Print | Product List | Glossary Off
Versions: 1 2 3 4 5 6 7 8 9 10 11 12 13 14 15 16 17 18 19 20 21 22 23 24 25 26 27 28 29 30 31 32 33 34 35 36 37 38 39 40 41 42 43 44 45 46 47 48 49 50

230
NZUS59 KLOT 111603
HRRLOT

CHICAGO AREA WEATHER ROUNDUP
NATIONAL WEATHER SERVICE CHICAGO/ROMEOVILLE IL
1000 AM CST THU FEB 11 2016

NOTE: "FAIR" INDICATES FEW OR NO CLOUDS BELOW 12,000 FEET WITH NO
SIGNIFICANT WEATHER AND/OR OBSTRUCTIONS TO VISIBILITY.

* THESE STATIONS ARE NOT UNDER NWS QUALITY CONTROL. THEY ALSO MAY NOT
  REPORT WEATHER SUCH AS PRECIPITATION OR FOG.

ILZ005-006-012>014-019>023-111700-
NORTHEAST ILLINOIS

CITY           SKY/WX    TMP DP  RH WIND       PRES   REMARKS
OHARE          MOSUNNY   13   0  56 N9        30.32R WCI   1
MIDWAY         MOSUNNY   15   0  51 NW7       30.33R WCI   5
AURORA         SUNNY     15   3  59 N9        30.33R WCI   3
LANSING*       SUNNY     16   3  57 N7        30.32S WCI   6
WAUKEGAN       SUNNY     13   1  59 NW8       30.29S WCI   2
DUPAGE AIRPORT SUNNY     14   0  53 N8        30.31R WCI   3
WHEELING       SUNNY     12   0  58 NW7       30.33R WCI   1
MORRIS*        SUNNY     15   2  57 N6        30.33R WCI   6
$$

WIZ051-052-058>065-066-070>072-111700-
SOUTHEAST WISCONSIN

CITY           SKY/WX    TMP DP  RH WIND       PRES   REMARKS
MILWAUKEE      SUNNY     12  -1  56 W5        30.30R WCI   4
KENOSHA*       SUNNY     13   1  59 NW9       30.30R WCI   1
RACINE*        SUNNY     11  -1  58 W8        30.32R WCI  -1
BURLINGTON     SUNNY     10  -1  58 N8        30.30S WCI  -1
$$

INZ001>003-010>013-019-020-111700-
NORTHWEST INDIANA

CITY           SKY/WX    TMP DP  RH WIND       PRES   REMARKS
GARY*          MOSUNNY   18   5  57 NW10      30.32  WCI   6
MICHIGAN CITY* NOT AVBL
RENSSELAER*    NOT AVBL
VALPARAISO     LGT SNOW  16   8  71 W12       30.29R WCI   3
$$

LMZ740>746-111700-
SOUTHERN LAKE MICHIGAN

STATION/POSITION TIME  SKY/WX   TEMP WIND        PRES    VSBY
                                AIR  DIR/SP/G
                 (UTC)          (F)  (DEG/KT/KT) (MB)    (MI)
HARRISON CRIB    1500            13  310/ 13/ 16   N/A
BURNHAM HARBOR   1600            16  290/  6/  9   N/A
CALUMET HARBOR   1500            13  300/  5/  9 1025.6R
BURNS HARBOR     NOT AVBL
MICHIGAN CITY    1500            19  300/ 12/ 15   N/A
$$

ABBREVIATIONS USED IN REMARKS
   TC - TEMPERATURE IN CELSIUS
  WCI - WIND CHILL INDEX
   HX - HEAT INDEX
  VSB - VISIBILITY
$$




USA.gov is the U.S. government's official web portal to all federal, state and local government web resources and services.